Regional Weather Roundup
Issued by NWS

Home | Current Version | Previous Version | Text Only | Print | Product List | Glossary On
Versions: 1 2 3 4 5 6 7 8 9 10 11 12 13 14 15 16 17 18 19 20 21 22 23 24 25 26 27 28 29 30 31 32 33 34 35 36 37 38 39 40 41 42 43 44 45 46 47 48
000
ASUS43 KDMX 050607
RWRIA

WEATHER ROUNDUP FOR IOWA
NATIONAL WEATHER SERVICE DES MOINES IA
100 AM CDT SUN JUL 05 2015

NOTE: "FAIR" INDICATES FEW OR NO CLOUDS BELOW 12,000 FEET WITH NO
SIGNIFICANT WEATHER AND/OR OBSTRUCTIONS TO VISIBILITY.

* - THESE STATIONS ARE NOT NWS STATIONS...THUS NOT UNDER NWS
QUALITY CONTROL.  THEY ALSO DO NOT REPORT WEATHER SUCH
AS PRECIPITATION OR FOG.

IAZ001>003-012>014-020>022-031>034-043>046-050700-
   NORTHWEST IOWA

CITY           SKY/WX    TMP DP  RH WIND       PRES   REMARKS
CARROLL *      CLOUDY    63  61  94 S5        29.98S
CHEROKEE *     CLEAR     64  62  91 S6        29.95F
DENISON *      MOCLDY    68  61  77 S10       29.95S
LE MARS *        N/A     68  63  83 S8        29.93F
ORANGE CITY *  CLEAR     64  61  88 S7        29.93F
SHELDON *      CLEAR     66  66 100 S9        29.92F
SIOUX CITY     PTCLDY    69  62  78 SE8       29.92F
6HR MIN TEMP:  67; 6HR MAX TEMP:  80;

SPENCER        CLEAR     64  58  80 S8        29.95F
6HR MIN TEMP:  63; 6HR MAX TEMP:  80;

STORM LAKE *   CLEAR     63  61  94 S8        29.98S
$$

IAZ055>058-069>071-079>083-090>094-050700-
   SOUTHWEST IOWA

CITY           SKY/WX    TMP DP  RH WIND       PRES   REMARKS
ATLANTIC *     CLOUDY    64  61  88 SW5       30.00R
AUDUBON *      CLEAR     59  55  88 CALM      30.01R
CLARINDA *     CLEAR     63  63 100 CALM      30.01S
COUNCIL BLFS *   N/A     68  63  83 SE8       29.98R
CRESTON *      CLEAR     66  61  82 S7        30.01S
HARLAN  *      CLEAR     61  61 100 CALM      30.02R
LAMONI         CLEAR     67  62  84 S7        30.02R
6HR MIN TEMP:  67; 6HR MAX TEMP:  79;

RED OAK *      CLEAR     64  63  94 SW3       29.99R
SHENANDOAH *   CLEAR     66  63  88 SE6       29.99S
$$

IAZ047>049-059>061-072>074-084-050700-
   CENTRAL IOWA

CITY           SKY/WX    TMP DP  RH WIND       PRES   REMARKS
AMES           CLEAR     62  60  93 SE5       30.00R
6HR MIN TEMP:  62; 6HR MAX TEMP:  77;

ANKENY *       CLEAR     61  61 100 CALM      30.00R FOG
CHARITON *     CLEAR     64  61  88 S7        30.02R
DES MOINES     CLEAR     68  60  75 S6        30.00R
6HR MIN TEMP:  68; 6HR MAX TEMP:  80;

GRINNELL*      CLEAR     64  60  85 SE5       30.03R
KNOXVILLE *    CLEAR     66  61  82 SE5       30.00R
MARSHALLTOWN   CLEAR     62  59  90 SE6       30.01R
6HR MIN TEMP:  62; 6HR MAX TEMP:  76;

PELLA *        CLEAR     64  64 100 SE5       30.03R
PERRY *          N/A     63  61  94 S6        29.99S
$$

IAZ004>006-015-016-023>025-035-036-050700-
   NORTH CENTRAL IOWA

CITY           SKY/WX    TMP DP  RH WIND       PRES   REMARKS
ALGONA *       PTCLDY    66  61  82 S10       29.98S
CLARION *      CLEAR     63  59  88 SE7       30.00R
ESTHERVILLE    CLEAR     62  60  93 S9        29.95F
6HR MIN TEMP:  59; 6HR MAX TEMP:  77;

FORT DODGE *   CLEAR     66  59  77 SE7       30.00S
MASON CITY     CLEAR     60  59  96 S6        30.02R
6HR MIN TEMP:  60; 6HR MAX TEMP:  78;

FOREST CITY *  CLEAR     61  59  94 SE7       30.00S
IOWA FALLS *     N/A     63  59  88 SE6       30.02S
$$

IAZ007>011-017>019-026>030-037>042-050>054-066-050700-
   NORTHEAST IOWA

CITY           SKY/WX    TMP DP  RH WIND       PRES   REMARKS
CEDAR RAPIDS   CLEAR     63  61  93 S5        30.02R
6HR MIN TEMP:  63; 6HR MAX TEMP:  76;

CHARLES CITY * CLEAR     63  63 100 S7        30.02R
CLINTON *      CLEAR     66  61  82 S6        30.05S
DECORAH *        N/A    N/A N/A N/A MISG        N/A
DUBUQUE        CLEAR     61  58  90 S3        30.03R
6HR MIN TEMP:  61; 6HR MAX TEMP:  77;

MONTICELLO *   CLEAR     61  61 100 CALM      30.02R
OELWEIN *      CLEAR     63  61  94 S5        30.03
WATERLOO       CLEAR     65  59  81 S6        30.01R
6HR MIN TEMP:  65; 6HR MAX TEMP:  78;

$$

IAZ064-065-067-068-078-050700-
   EAST CENTRAL IOWA

CITY           SKY/WX    TMP DP  RH WIND       PRES   REMARKS
DAVENPORT      CLEAR     63  59  87 S5        30.03S FOG
6HR MIN TEMP:  62; 6HR MAX TEMP:  77;

IOWA CITY      CLEAR     66  61  84 CALM      30.03R
6HR MIN TEMP:  64; 6HR MAX TEMP:  78;

MT. PLEASANT * CLEAR     67  60  80 SE6       30.02S
MUSCATINE *    CLEAR     63  59  88 CALM      30.03R
QUAD CITIES    CLEAR     64  60  87 CALM      30.02S
6HR MIN TEMP:  64; 6HR MAX TEMP:  78;

$$

IAZ062-063-075>077-085>089-095>099-050700-
   SOUTHEAST IOWA

CITY           SKY/WX    TMP DP  RH WIND       PRES   REMARKS
BURLINGTON     CLEAR     68  63  84 SE5       30.03R
6HR MIN TEMP:  66; 6HR MAX TEMP:  77;

FAIRFIELD *    CLEAR     66  61  82 SE5       30.03R
FORT MADISON * CLEAR     68  63  83 S5        30.04R
KEOKUK *       CLEAR     68  64  88 SE5       30.03R
OSKALOOSA *      N/A     62  60  91 SE3       30.02S
CENTERVILLE *  CLEAR     63  61  94 S5        30.04R
OTTUMWA        CLEAR     63  61  93 S7        30.00S
6HR MIN TEMP:  63; 6HR MAX TEMP:  78;

WASHINGTON *   CLEAR     63  61  94 S5        30.04R
$$

ABBREVIATIONS USED IN REMARKS
   TC - TEMPERATURES IN CELSIUS
  WCI - WIND CHILL INDEX
   HX - HEAT INDEX
  VSB - VISIBILITY
$$




USA.gov is the U.S. government's official web portal to all federal, state and local government web resources and services.